Weather History for Fort Worth NAS, TX

Change the Weather History Date:

Sunday, June 16, 2013

  Actual Average Record
Temperature  
Mean Temperature 87 °F -  
Max Temperature 97 °F 88 °F 102 °F (2011)
Min Temperature 77 °F 70 °F 66 °F (1997)
Cooling Degree Days 22    
Growing Degree Days 37 (Base 50)    
Moisture  
Dew Point 66 °F    
Average Humidity 52    
Maximum Humidity 74    
Minimum Humidity 36    
Precipitation  
Precipitation 0.00 in - - ()
Sea Level Pressure  
Sea Level Pressure 29.94 in    
Wind  
Wind Speed 6 mph (SSE)    
Max Wind Speed 13 mph    
Max Gust Speed 18 mph    
Visibility 10 miles    
Events      
Averages and records for this station are not official NWS values.
T = Trace of Precipitation, MM = Missing Value Source: NWS Daily Summary

Daily Weather History Graph

Daily Weather History Graph

Search for Another Location

Airport:

Trip Planner

Search our weather history database for the weather conditions in past years. The results will help you decide how hot, cold, wet, or windy it might be!

Date:

Astronomy

Jun. 16, 2013 Rise Set
Actual Time 6:21 AM CDT 8:39 PM CDT
Civil Twilight 5:52 AM CDT 9:08 PM CDT
Nautical Twilight 5:17 AM CDT 9:43 PM CDT
Astronomical Twilight 4:39 AM CDT 10:21 PM CDT
Moon 1:35 PM CDT (6/16) 1:06 AM CDT (6/16)
Length of Visible Light 15h 15m
Length of Day
14h 18m
Waxing Crescent, 50% of the Moon is Illuminated
Jun 16
Waxing Crescent
Jun 16
First Quarter
Jun 23
Full
Jun 29
Last Quarter
Jul 8
New

Hourly Weather History & Observations

Time (CDT) Temp. Heat Index Dew Point Humidity Pressure Visibility Wind Dir Wind Speed Gust Speed Precip Events Conditions
12:52 AM 81.0 °F 83.3 °F 66.9 °F 62% 29.95 in 10.0 mi ESE 5.8 mph - N/A   Clear
1:52 AM 80.1 °F 82.3 °F 66.9 °F 64% 29.94 in 10.0 mi ESE 3.5 mph - N/A   Clear
2:52 AM 79.0 °F - 66.9 °F 66% 29.92 in 10.0 mi SSE 3.5 mph - N/A   Clear
3:52 AM 78.1 °F - 68.0 °F 71% 29.91 in 10.0 mi SE 3.5 mph - N/A   Clear
4:52 AM 78.1 °F - 68.0 °F 71% 29.93 in 10.0 mi ESE 3.5 mph - N/A   Clear
5:52 AM 79.0 °F - 68.0 °F 69% 29.96 in 10.0 mi Calm Calm - N/A   Mostly Cloudy
6:52 AM 77.0 °F - 68.0 °F 74% 29.98 in 10.0 mi SE 3.5 mph - N/A   Clear
7:52 AM 80.1 °F 82.9 °F 69.1 °F 69% 30.00 in 10.0 mi Calm Calm - N/A   Partly Cloudy
8:05 AM 80.6 °F 83.9 °F 69.8 °F 70% 30.05 in 10.0 mi Variable 5.8 mph - N/A   Clear
8:52 AM 82.9 °F 85.8 °F 68.0 °F 60% 30.01 in 10.0 mi SSW 9.2 mph - N/A   Mostly Cloudy
9:52 AM 87.1 °F 89.9 °F 66.9 °F 51% 30.01 in 10.0 mi SW 9.2 mph - N/A   Mostly Cloudy
10:52 AM 90.0 °F 92.8 °F 66.9 °F 46% 29.99 in 10.0 mi WSW 9.2 mph - N/A   Mostly Cloudy
11:52 AM 91.0 °F 94.3 °F 66.9 °F 45% 29.99 in 10.0 mi South 6.9 mph - N/A   Mostly Cloudy
12:52 PM 88.0 °F 92.1 °F 69.1 °F 53% 29.97 in 10.0 mi Calm Calm - N/A   Overcast
1:52 PM 93.9 °F 97.0 °F 66.0 °F 40% 29.95 in 10.0 mi SSW 6.9 mph - N/A   Scattered Clouds
2:52 PM 97.0 °F 100.4 °F 66.0 °F 36% 29.92 in 10.0 mi South 5.8 mph - N/A   Partly Cloudy
3:52 PM 96.1 °F 99.9 °F 66.9 °F 38% 29.91 in 10.0 mi South 12.7 mph 18.4 mph N/A   Mostly Cloudy
4:52 PM 96.1 °F 98.8 °F 64.9 °F 36% 29.89 in 10.0 mi South 9.2 mph - N/A   Scattered Clouds
5:52 PM 96.1 °F 99.3 °F 66.0 °F 37% 29.88 in 10.0 mi South 10.4 mph - N/A   Mostly Cloudy
6:52 PM 93.9 °F 96.1 °F 64.9 °F 38% 29.86 in 10.0 mi South 12.7 mph 17.3 mph N/A   Scattered Clouds
7:52 PM 93.9 °F 95.6 °F 64.0 °F 37% 29.86 in 10.0 mi SE 11.5 mph - N/A   Clear
8:52 PM 91.9 °F 93.3 °F 64.0 °F 39% 29.87 in 10.0 mi ESE 9.2 mph - N/A   Clear
9:52 PM 90.0 °F 90.6 °F 63.0 °F 40% 29.90 in 10.0 mi SE 6.9 mph - N/A   Clear
10:52 PM 89.1 °F 90.3 °F 64.0 °F 43% 29.91 in 10.0 mi SSE 6.9 mph - N/A   Clear
11:52 PM 88.0 °F 88.7 °F 63.0 °F 43% 29.91 in 10.0 mi SSE 6.9 mph - N/A   Clear